Terug naar catalogus

FENGYUN 1C DEB

LostSSO
NORAD 38821·DEBRIS·🇨🇳 China

Gelanceerd May 10, 1999 vanaf Taiyuan Satellite Launch Center

Loading…

Volgende Passages (komende 24 uur)

TLE

VerouderdSource: Space-Track

Epoch: Feb 4, 2026, 11:06 UTC

1 38821U 99025EVM 26035.46276684  .00002547  00000-0  16524-2 0  9994
2 38821  98.5293 268.3570 0112156  49.7851  70.1928 14.00423787685508

Volg FENGYUN 1C DEB in realtime met AllMySat

Download on the App Store